Weather History for Laredo, TX

Change the Weather History Date:

Monday, January 21, 2013

  Actual Average Record
Temperature  
Mean Temperature 68 °F 57 °F  
Max Temperature 78 °F 67 °F 93 °F (1911)
Min Temperature 57 °F 46 °F 20 °F (1943)
Degree Days  
Heating Degree Days 0 9  
Month to date heating degree days 213 205  
Since 1 July heating degree days 415 595  
Cooling Degree Days 3 1  
Month to date cooling degree days 6 21  
Year to date cooling degree days 6 21  
Growing Degree Days 16 (Base 50)    
Moisture  
Dew Point 52 °F    
Average Humidity 64    
Maximum Humidity 83    
Minimum Humidity 40    
Precipitation  
Precipitation 0.00 in 0.03 in 0.62 in (1966)
Month to date precipitation 0.44 0.61  
Year to date precipitation 0.44 0.61  
Sea Level Pressure  
Sea Level Pressure 30.15 in    
Wind  
Wind Speed 9 mph (SE)    
Max Wind Speed 16 mph    
Max Gust Speed 20 mph    
Visibility 10 miles    
Events      
T = Trace of Precipitation, MM = Missing Value Source: NWS Daily Summary

Daily Weather History Graph

Daily Weather History Graph

Search for Another Location

Airport:

Trip Planner

Search our weather history database for the weather conditions in past years. The results will help you decide how hot, cold, wet, or windy it might be!

Date:

Astronomy

Jan. 21, 2013 Rise Set
Actual Time 7:28 AM CST 6:10 PM CST
Civil Twilight 7:03 AM CST 6:35 PM CST
Nautical Twilight 6:35 AM CST 7:03 PM CST
Astronomical Twilight 6:07 AM CST 7:31 PM CST
Moon 1:53 PM CST (1/21) 2:57 AM CST (1/21)
Length of Visible Light 11h 31m
Length of Day
10h 41m
Waxing Gibbous, 75% of the Moon is Illuminated
Jan 21
Waxing Gibbous
Jan 26
Full
Feb 3
Last Quarter
Feb 10
New
Feb 17
First Quarter

Hourly Weather History & Observations

Time (CST) Temp. Dew Point Humidity Pressure Visibility Wind Dir Wind Speed Gust Speed Precip Events Conditions
12:56 AM 61.0 °F 52.0 °F 72% 30.12 in 10.0 mi SSE 8.1 mph - N/A   Clear
1:56 AM 59.0 °F 52.0 °F 78% 30.12 in 10.0 mi SE 5.8 mph - N/A   Clear
2:56 AM 57.9 °F 52.0 °F 81% 30.10 in 10.0 mi ESE 6.9 mph - N/A   Clear
3:56 AM 56.8 °F 52.0 °F 84% 30.09 in 10.0 mi ESE 6.9 mph - N/A   Scattered Clouds
4:08 AM 57.2 °F 51.8 °F 82% 30.11 in 10.0 mi ESE 6.9 mph - N/A   Mostly Cloudy
4:56 AM 57.9 °F 52.0 °F 81% 30.10 in 10.0 mi ESE 6.9 mph - N/A   Overcast
5:56 AM 59.0 °F 53.6 °F 82% 30.13 in 10.0 mi SE 5.8 mph - N/A   Overcast
6:56 AM 59.9 °F 52.9 °F 78% 30.12 in 10.0 mi ESE 3.5 mph - N/A   Overcast
7:56 AM 59.9 °F 54.0 °F 81% 30.14 in 10.0 mi East 4.6 mph - N/A   Overcast
8:56 AM 61.0 °F 54.0 °F 78% 30.18 in 10.0 mi East 6.9 mph - N/A   Overcast
9:56 AM 63.0 °F 54.9 °F 75% 30.20 in 10.0 mi SE 6.9 mph - N/A   Overcast
10:56 AM 66.9 °F 57.9 °F 73% 30.21 in 10.0 mi South 11.5 mph - N/A   Overcast
11:11 AM 68.0 °F 59.0 °F 73% 30.23 in 10.0 mi SSE 12.7 mph - N/A   Overcast
11:56 AM 70.0 °F 57.9 °F 65% 30.19 in 10.0 mi South 10.4 mph - N/A   Mostly Cloudy
12:22 PM 71.6 °F 57.2 °F 60% 30.21 in 10.0 mi ESE 11.5 mph - N/A   Scattered Clouds
12:56 PM 73.9 °F 57.9 °F 57% 30.16 in 10.0 mi South 12.7 mph - N/A   Mostly Cloudy
1:04 PM 73.4 °F 57.2 °F 57% 30.18 in 10.0 mi SSE 8.1 mph - N/A   Mostly Cloudy
1:56 PM 74.8 °F 55.9 °F 52% 30.14 in 10.0 mi SE 12.7 mph - N/A   Mostly Cloudy
2:56 PM 75.9 °F 52.9 °F 45% 30.11 in 10.0 mi ESE 9.2 mph - N/A   Scattered Clouds
3:56 PM 77.0 °F 52.0 °F 42% 30.10 in 10.0 mi ESE 11.5 mph - N/A   Scattered Clouds
4:56 PM 75.9 °F 50.9 °F 41% 30.10 in 10.0 mi ESE 8.1 mph - N/A   Clear
5:56 PM 72.9 °F 50.9 °F 46% 30.12 in 10.0 mi SE 9.2 mph - N/A   Partly Cloudy
6:56 PM 70.0 °F 50.9 °F 51% 30.13 in 10.0 mi ESE 8.1 mph - N/A   Clear
7:56 PM 66.9 °F 50.0 °F 54% 30.14 in 10.0 mi ESE 10.4 mph - N/A   Clear
8:56 PM 64.9 °F 45.0 °F 48% 30.17 in 10.0 mi ESE 11.5 mph - N/A   Partly Cloudy
9:56 PM 63.9 °F 43.9 °F 48% 30.17 in 10.0 mi ESE 10.4 mph - N/A   Clear
10:56 PM 63.0 °F 43.0 °F 48% 30.17 in 10.0 mi ESE 11.5 mph - N/A   Scattered Clouds
11:56 PM 61.0 °F 45.0 °F 56% 30.18 in 10.0 mi SE 5.8 mph - N/A   Mostly Cloudy